Location: Franzen
(48.6167°N, 15.3833°E)
Time: 08:38:59
(UTC+00:00)

Altair - Pass Details

Date: 05 August 2021
Orbit: 1501 x 1682 km, 47.2° (Epoch: 20 September)

Event Time Altitude Azimuth Distance (km) Brightness Sun altitude
Rises 04:25:09 0° 284° (WNW) 4,685 9.5 6.3°
Reaches altitude 10° 04:28:14 10° 282° (WNW) 3,685 9.0 6.8°
Maximum altitude 04:37:18 63° 204° (SSW) 1,646 7.7 8.2°
Drops below altitude 10° 04:46:17 10° 126° (SE) 3,656 10.2 9.7°
Sets 04:49:20 0° 123° (ESE) 4,645 10.7 10.2°
